Daytona Beach International Airport

Airport
ICAO code: 
KDAB
Summary
ICAO Region: 
NAM
Territory: 
Location: 
Daytona Beach, Florida,
Elevation: 
34 ft
Coordinates: 
Aerial View: 
29° 10' 46.363" N, 81° 3' 22.125" W
Airport LOS: 
Parallel Runway Operation
Metar
Observation
KDAB 210453Z 00000KT 10SM BKN250 14/12 A3007 RMK AO2 SLP183 T01390117 402560100
Station
Daytona Beach, Daytona Beach Regional Airport
Date/Time
2022-01-21 04:53:00
Wind direction
Wind speed
00 kts
Lowest cloud amount
broken clouds
Temperature
13.9°C
Dew point
11.7°C
Humidity
86%
Weather condition
n/a

Description

Daytona Beach International Airport is a public county-owned airport located 5 km southwest of the central business district of Daytona Beach, in Volusia County, Florida.

Climatology

Humid “subtropical” climate (Köppen climate classification Cfa) - characterized by hot, humid summers and cool winters. Significant amounts of precipitation occur in all seasons in most areas.

Runways

Designator Length Width Surface Rops
07R/25L 974 30 ASP Yes/Yes
16/34 1829 46 ASP Yes/Yes
07L/25R 3200 46 ASP Yes/Yes
Airport map: 
Aerial View: 

SKYbrary Partners:

Safety knowledge contributed by: